Regional Weather Roundup
Issued by NWS Jackson, KY

Home | Current Version | Previous Version | Text Only | Print | Product List | Glossary On
Versions: 1 2 3 4 5 6 7 8 9 10 11 12 13 14 15 16 17 18 19 20 21 22 23 24 25 26 27 28 29 30 31 32 33 34 35 36 37 38 39 40 41 42 43 44 45 46 47 48 49 50
653
ASUS43 KJKL 111910
RWRJKL

EAST KENTUCKY HOURLY WEATHER ROUNDUP
NATIONAL WEATHER SERVICE JACKSON KY
200 PM EST MON DEC 11 2017

NOTE: "FAIR" INDICATES FEW OR NO CLOUDS BELOW 12,000 FEET WITH
NO SIGNIFICANT WEATHER AND/OR OBSTRUCTIONS TO VISIBILITY.

* THESE REPORTS ARE NOT UNDER NWS QUALITY CONTROL AND MAY NOT
  REPORT WEATHER SUCH AS PRECIPITATION AND FOG.

KYZ079-080-083-085-087-088-110-112-115-119-120-112000
...EASTERN KENTUCKY...

CITY           SKY/WX    TMP DP  RH WIND       PRES   REMARKS
JACKSON        SUNNY     51  27  39 VRB6      29.94F
LONDON         SUNNY     52  26  36 SW9       29.95F
SOMERSET*      SUNNY     52  27  37 W13       29.98F
MONTICELLO*    SUNNY     54  29  38 SW14G23   29.99F
WILLIAMSBURG*  CLEAR     55  27  33 SW8       29.96F
MIDDLESBORO*   SUNNY     51  29  43 S13       29.99F
HARLAN APT*    CLEAR     50  27  40 CALM      29.97F
PIKE CO APT*     N/A     50  26  39 W5        29.95F
BIG SANDY APT* CLEAR     50  26  40 SW5       29.95F
MOREHEAD APT*  CLEAR     46  25  42 SW8       29.93F
$$

KYZ035-036-041-042-044-050-067-078-099-112000
...CENTRAL KENTUCKY...

CITY           SKY/WX    TMP DP  RH WIND       PRES   REMARKS
MT STERLING*   SUNNY     46  28  49 SW10G17   29.93F
FLEMING/MASON* MOSUNNY   44  28  53 S10       29.93F
DANVILLE*      SUNNY     50  28  43 SW14      29.93F
LEXINGTON      SUNNY     50  28  42 S13       29.90F
FRANKFORT      SUNNY     50  26  39 S10       29.89F
LOUISVILLE     MOSUNNY   54  28  36 S15G24    29.86F
LEBANON*         N/A     50  28  43 S14G20    29.92F
GLASGOW*       SUNNY     54  29  38 S13G18    29.94F
BOWLING GREEN  SUNNY     56  30  37 SW16      29.95F
$$

KYZ091>093-OHZ055-061-077-WVZ005-015-034-035-042-112000
...SOUTHERN OHIO/WEST VIRGINIA...

CITY           SKY/WX    TMP DP  RH WIND       PRES   REMARKS
COVINGTON      PTSUNNY   44  29  55 SW12      29.85F
COLUMBUS       CLOUDY    36  24  62 S9        29.90F WCI  29
DAYTON         CLOUDY    36  27  69 SW8       29.86F WCI  30
WILMINGTON     MOSUNNY   38  28  67 S15       29.85F WCI  29
HUNTINGTON     MOSUNNY   46  25  43 SW12G18   29.94F
CHARLESTON     CLOUDY    46  24  42 SW8       29.96F
PINEVILLE*     MOSUNNY   47  26  42 MISG      30.01F
BECKLEY        CLOUDY    43  23  45 SW8       29.94F
BLUEFIELD      SUNNY     44  21  40 SW13G20   29.95F
LOGAN CO APT*  CLOUDY    48  25  40 S6G13     29.95F
$$

VAZ002-007-008-TNZ017-027-036-066-071-112000
...SOUTHWEST VIRGINIA/EAST TENNESSEE...

CITY           SKY/WX    TMP DP  RH WIND       PRES   REMARKS
WISE*          MOSUNNY   48  28  46 S10       29.96F
JONESVILLE*      N/A     48  27  43 CALM      30.02F
ABINGDON*      SUNNY     48  29  47 W8        30.01F
BRISTOL        MOSUNNY   50  30  46 S6        30.01F
MORRISTOWN*    CLEAR     52  28  40 SW9       30.00F
SEVIERVILLE*   CLEAR     54  30  40 N8        30.01F
KNOXVILLE      SUNNY     55  34  45 SW13      30.02F
LAFOLLETTE*    CLEAR     52  30  43 S6        30.03F
OAK RIDGE      SUNNY     52  31  44 VRB5      30.04F
CROSSVILLE     SUNNY     54  26  34 W10G18    30.00F
NASHVILLE      SUNNY     59  29  31 S12       29.99F
$$

...KEY TO REMARKS...
VSB - VISIBILITY IN MILES
WCI - WIND CHILL INDEX
HX  - HEAT INDEX

$$




USA.gov is the U.S. government's official web portal to all federal, state and local government web resources and services.